FW5926 Weather Reports


time (UTC)temp
F
wind
direction
speed
knots
gust
knots
rain 1hr
in
rain 24hr
in
rain mn
in
humidity
%
barometer
mb
20260503060106 37 296 0.9 1.7 0.00 0.00 0.00 70 1015.9
20260503055103 38 296 0.9 2.6 0.00 0.00 0.00 70 1016.0
20260503054604 38 296 0.0 0.9 0.00 0.00 0.00 70 1016.1
20260503054105 38 296 0.9 1.7 0.00 0.00 0.00 70 1016.1
20260503053604 38 296 0.9 1.7 0.00 0.00 0.00 70 1016.1
20260503053104 38 296 0.0 0.9 0.00 0.00 0.00 70 1016.1
20260503052604 38 296 0.0 0.9 0.00 0.00 0.00 70 1016.1
20260503052104 38 296 0.0 0.9 0.00 0.00 0.00 70 1016.1
20260503051604 38 296 0.9 1.7 0.00 0.00 0.00 70 1016.2
20260503051104 38 296 0.9 1.7 0.00 0.00 0.00 69 1016.2
20260503050604 38 296 0.0 0.9 0.00 0.00 0.00 69 1016.3
20260503045604 39 296 0.0 1.7 0.00 0.00 0.00 69 1016.4
20260503045104 39 296 0.9 1.7 0.00 0.00 0.00 68 1016.4
20260503044604 39 296 0.9 1.7 0.00 0.00 0.00 68 1016.3
20260503044104 39 296 0.9 2.6 0.00 0.00 0.00 68 1016.4
20260503043604 39 296 0.9 1.7 0.00 0.00 0.00 68 1016.4
20260503043104 39 296 0.0 1.7 0.00 0.00 0.00 68 1016.3
20260503042605 39 296 0.0 1.7 0.00 0.00 0.00 68 1016.3
20260503042104 39 296 0.9 1.7 0.00 0.00 0.00 68 1016.4
20260503041604 39 296 0.0 0.9 0.00 0.00 0.00 68 1016.4
20260503041104 39 296 0.9 1.7 0.00 0.00 0.00 69 1016.5
20260503035104 40 296 0.0 0.9 0.00 0.00 0.00 68 1016.5
20260503034604 40 296 0.0 0.0 0.00 0.00 0.00 68 1016.6
20260503034103 40 296 0.0 0.9 0.00 0.00 0.00 68 1016.5
20260503033604 41 296 0.0 0.0 0.00 0.00 0.00 67 1016.5
20260503033104 41 296 0.0 0.9 0.00 0.00 0.00 67 1016.6
20260503032604 41 296 0.9 1.7 0.00 0.00 0.00 67 1016.6
20260503032104 41 296 0.0 1.7 0.00 0.00 0.00 67 1016.6
20260503030604 41 296 0.0 1.7 0.00 0.00 0.00 66 1016.6
20260503025603 41 296 0.0 0.9 0.00 0.00 0.00 66 1016.6
20260503025104 41 296 0.0 0.9 0.00 0.00 0.00 66 1016.7
20260503024104 41 296 0.0 0.9 0.00 0.00 0.00 64 1016.8
20260503023604 42 296 0.0 0.0 0.00 0.00 0.00 63 1016.7
20260503023105 42 296 0.0 0.9 0.00 0.00 0.00 63 1016.7
20260503022104 43 296 0.0 0.0 0.00 0.00 0.00 61 1016.7
20260503021604 43 296 0.0 0.0 0.00 0.00 0.00 60 1016.6
20260503021104 44 296 0.0 0.9 0.00 0.00 0.00 59 1016.5
20260503020604 44 296 0.0 0.0 0.00 0.00 0.00 58 1016.5
20260503020105 44 296 0.0 0.0 0.00 0.00 0.00 58 1016.4
20260503015604 44 296 0.0 0.9 0.00 0.00 0.00 57 1016.4
20260503015104 45 296 0.0 0.9 0.00 0.00 0.00 57 1016.4
20260503014604 45 296 0.0 1.7 0.00 0.00 0.00 56 1016.4
20260503014104 45 314 0.0 1.7 0.00 0.00 0.00 56 1016.3
20260503013604 45 314 0.0 1.7 0.00 0.00 0.00 55 1016.3
20260503012604 45 315 0.0 0.9 0.00 0.00 0.00 54 1016.2
20260503012104 45 315 0.0 0.9 0.00 0.00 0.00 55 1016.2
20260503011105 46 315 0.0 0.9 0.00 0.00 0.00 54 1016.2
20260503010604 46 315 0.0 0.9 0.00 0.00 0.00 53 1016.2
20260503010105 46 315 0.0 0.9 0.00 0.00 0.00 52 1016.2
20260503005604 46 315 0.0 0.9 0.00 0.00 0.00 52 1016.1
20260503005105 46 315 0.0 0.9 0.00 0.00 0.00 51 1016.1
20260503004604 47 315 0.0 0.9 0.00 0.00 0.00 50 1016.1
20260503004104 47 315 0.0 0.9 0.00 0.00 0.00 50 1016.0
20260503003104 47 315 0.0 1.7 0.00 0.00 0.00 50 1015.9
20260503002604 47 315 0.0 1.7 0.00 0.00 0.00 50 1015.9
20260503001604 47 315 0.9 2.6 0.00 0.00 0.00 49 1015.9
20260503001105 47 315 1.7 2.6 0.00 0.00 0.00 49 1015.9
20260503000604 47 294 2.6 4.3 0.00 0.00 0.00 49 1015.9
20260503000105 47 324 1.7 2.6 0.00 0.00 0.00 49 1015.9
20260502235604 47 306 1.7 2.6 0.00 0.00 0.00 49 1015.9
20260502234604 47 308 1.7 2.6 0.00 0.00 0.00 49 1016.0
20260502234104 47 288 2.6 7.0 0.00 0.00 0.00 48 1015.9
20260502233604 48 312 1.7 4.3 0.00 0.00 0.00 48 1015.9
20260502233104 47 257 1.7 5.2 0.00 0.00 0.00 48 1016.0
20260502231604 47 334 2.6 5.2 0.00 0.00 0.00 48 1016.1
20260502231104 47 288 1.7 6.1 0.00 0.00 0.00 47 1016.1
20260502230604 48 297 2.6 7.8 0.00 0.00 0.00 47 1016.1
20260502230105 48 311 2.6 6.1 0.00 0.00 0.00 46 1016.2
20260502225605 48 331 3.5 7.8 0.00 0.00 0.00 46 1016.2
20260502225104 48 312 3.5 7.8 0.00 0.00 0.00 47 1016.2
20260502224604 47 342 2.6 5.2 0.00 0.00 0.00 48 1016.2
20260502224104 47 264 4.3 7.8 0.00 0.00 0.00 48 1016.2
20260502223604 47 340 2.6 4.3 0.00 0.00 0.00 46 1016.3
20260502223104 47 325 2.6 5.2 0.00 0.00 0.00 46 1016.3
20260502222604 47 316 2.6 7.0 0.00 0.00 0.00 45 1016.2
20260502222104 47 330 2.6 7.8 0.00 0.00 0.00 45 1016.4
20260502221604 48 337 1.7 4.3 0.00 0.00 0.00 45 1016.4
20260502221105 48 343 2.6 7.0 0.00 0.00 0.00 45 1016.4
20260502220604 48 317 4.3 7.8 0.00 0.00 0.00 46 1016.4
20260502215604 47 325 3.5 7.8 0.00 0.00 0.00 46 1016.4
20260502215104 47 9 2.6 7.0 0.00 0.00 0.00 45 1016.4
20260502214604 47 341 5.2 10.4 0.00 0.00 0.00 44 1016.4
20260502214105 47 325 3.5 7.0 0.00 0.00 0.00 46 1016.4
20260502213605 47 316 3.5 6.1 0.00 0.00 0.00 45 1016.4
20260502213104 47 306 4.3 7.8 0.00 0.00 0.00 46 1016.4
20260502212104 47 333 3.5 8.7 0.00 0.00 0.00 46 1016.4
20260502211605 47 322 4.3 7.8 0.00 0.00 0.00 46 1016.5
20260502211104 47 287 2.6 8.7 0.00 0.00 0.00 46 1016.6
20260502210603 47 352 5.2 8.7 0.00 0.00 0.00 45 1016.5
20260502205104 47 330 2.6 7.8 0.00 0.00 0.00 46 1016.6
20260502204604 47 278 2.6 7.8 0.00 0.00 0.00 47 1016.6
20260502204104 47 315 4.3 10.4 0.00 0.00 0.00 45 1016.7
20260502203604 47 341 4.3 10.4 0.00 0.00 0.00 46 1016.7
20260502203104 47 326 6.1 12.2 0.00 0.00 0.00 46 1016.8
20260502202604 47 290 5.2 7.8 0.00 0.00 0.00 46 1016.7
20260502201604 47 339 4.3 10.4 0.00 0.00 0.00 45 1016.9
20260502201103 47 304 5.2 11.3 0.00 0.00 0.00 45 1017.0
20260502200604 47 315 7.8 10.4 0.00 0.00 0.00 46 1016.9
20260502200105 48 340 4.3 8.7 0.00 0.00 0.00 45 1017.0
20260502195604 47 275 2.6 7.0 0.00 0.00 0.00 49 1016.9
20260502194604 47 328 4.3 10.4 0.00 0.00 0.00 47 1017.1
20260502194105 46 302 5.2 10.4 0.00 0.00 0.00 46 1017.2
20260502193604 47 278 6.1 10.4 0.00 0.00 0.00 46 1017.2
20260502193104 47 315 4.3 10.4 0.00 0.00 0.00 45 1017.1
20260502192604 47 310 2.6 7.8 0.00 0.00 0.00 46 1017.2
20260502191604 47 313 2.6 10.4 0.00 0.00 0.00 45 1017.2
20260502190604 47 297 3.5 8.7 0.00 0.00 0.00 49 1017.4
20260502190105 46 329 3.5 7.8 0.00 0.00 0.00 48 1017.4
20260502185604 46 338 4.3 10.4 0.00 0.00 0.00 46 1017.5
20260502185104 46 319 4.3 8.7 0.00 0.00 0.00 49 1017.5
20260502184604 46 329 2.6 10.4 0.00 0.00 0.00 48 1017.5
20260502184104 46 349 6.1 10.4 0.00 0.00 0.00 48 1017.5
20260502183604 46 306 4.3 8.7 0.00 0.00 0.00 47 1017.5
20260502183104 46 329 4.3 12.2 0.00 0.00 0.00 46 1017.4
20260502182104 46 329 7.0 11.3 0.00 0.00 0.00 48 1017.5
20260502181604 46 299 3.5 11.3 0.00 0.00 0.00 48 1017.5
20260502181104 46 308 8.7 13.0 0.00 0.00 0.00 48 1017.6
20260502170105 45 311 6.1 10.4 0.00 0.00 0.00 49 1018.2
20260502164104 44 314 3.5 7.8 0.00 0.00 0.00 53 1018.4
20260502163605 44 303 1.7 6.1 0.00 0.00 0.00 51 1018.5
20260502163104 44 334 5.2 11.3 0.00 0.00 0.00 51 1018.5
20260502162104 44 345 5.2 10.4 0.00 0.00 0.00 52 1018.6
20260502161604 44 304 6.1 10.4 0.00 0.00 0.00 51 1018.5
20260502161104 44 19 6.1 10.4 0.00 0.00 0.00 51 1018.6
20260502160604 44 330 2.6 7.8 0.00 0.00 0.00 52 1018.5
20260502160106 44 13 2.6 7.0 0.00 0.00 0.00 54 1018.6
20260502152103 43 320 4.3 8.7 0.00 0.00 0.00 58 1018.2
20260502151604 43 322 4.3 6.1 0.00 0.00 0.00 59 1018.1
20260502151105 42 288 5.2 8.7 0.00 0.00 0.00 58 1018.2
20260502150604 42 351 4.3 7.8 0.00 0.00 0.00 59 1018.1
20260502140105 42 8 2.6 10.4 0.00 0.00 0.00 65 1017.9
20260502130604 40 347 4.3 8.7 0.00 0.00 0.00 70 1018.1
20260502130105 40 356 5.2 10.4 0.00 0.00 0.00 70 1018.2
20260502123603 39 340 4.3 7.8 0.00 0.00 0.00 73 1018.1
20260502123104 39 340 5.2 8.7 0.00 0.00 0.00 73 1018.1
20260502122604 39 357 5.2 7.8 0.00 0.00 0.00 73 1018.1
20260502122104 38 23 1.7 7.0 0.00 0.00 0.00 74 1018.1
20260502121603 38 2 3.5 7.8 0.00 0.00 0.00 74 1018.0
20260502121103 38 8 3.5 7.8 0.00 0.00 0.00 75 1018.1
20260502120105 37 354 4.3 7.0 0.00 0.00 0.00 78 1017.9
20260502115604 37 343 3.5 7.8 0.00 0.00 0.00 78 1017.9
20260502115104 36 331 1.7 2.6 0.00 0.00 0.00 79 1017.9
20260502114604 36 346 1.7 2.6 0.00 0.00 0.00 79 1017.8
20260502114104 36 343 2.6 4.3 0.00 0.00 0.00 80 1017.8
20260502113604 35 333 1.7 2.6 0.00 0.00 0.00 80 1017.7
20260502113103 35 355 1.7 2.6 0.00 0.00 0.00 80 1017.7
20260502112604 35 322 0.9 2.6 0.00 0.00 0.00 80 1017.7
20260502112104 35 322 1.7 2.6 0.00 0.00 0.00 80 1017.7
20260502111103 35 322 1.7 2.6 0.00 0.00 0.00 80 1017.6
20260502110604 34 324 1.7 2.6 0.00 0.00 0.00 80 1017.5
20260502105604 34 331 0.9 2.6 0.00 0.00 0.00 80 1017.5
20260502105105 34 323 0.9 2.6 0.00 0.00 0.00 80 1017.4
20260502104604 35 319 1.7 2.6 0.00 0.00 0.00 79 1017.3
20260502104104 35 318 1.7 2.6 0.00 0.00 0.00 80 1017.3
20260502103604 35 313 2.6 2.6 0.00 0.00 0.00 80 1017.3
20260502103104 35 319 1.7 2.6 0.00 0.01 0.00 79 1017.2
20260502102603 35 318 1.7 2.6 0.00 0.01 0.00 79 1017.3
20260502102104 35 287 1.7 6.1 0.00 0.01 0.00 79 1017.3
20260502101104 35 331 2.6 5.2 0.00 0.01 0.00 79 1017.3
20260502100604 35 325 1.7 2.6 0.00 0.02 0.00 78 1017.2
20260502100105 35 326 1.7 4.3 0.00 0.02 0.00 78 1017.2
20260502090604 38 324 1.7 5.2 0.00 0.03 0.00 74 1017.0
20260502090105 38 325 2.6 6.1 0.00 0.03 0.00 74 1016.9
20260502071104 41 327 2.6 6.1 0.00 0.05 0.00 69 1016.5
20260502070604 41 346 2.6 6.1 0.00 0.05 0.00 69 1016.6
20260502070105 41 312 3.5 8.7 0.00 0.05 0.00 69 1016.6
20260502065605 41 340 3.5 7.0 0.00 0.06 0.00 69 1016.6
20260502065104 41 349 3.5 7.0 0.00 0.06 0.00 70 1016.6
20260502064604 41 308 2.6 6.1 0.00 0.07 0.00 70 1016.7
20260502064103 41 321 2.6 5.2 0.00 0.08 0.00 70 1016.6
20260502063605 41 327 4.3 10.4 0.00 0.08 0.00 71 1016.7